sat.trackr.live / text

‹ back to catalog

FLOCK 4BE-31

NORAD 60488 · 2024-149W

PAYLOAD ACTIVE UNKNOWN

§ Identity

Operator
Country
US
Launch date
2024-08-16
Launch site
AFWTR
Launch vehicle
Mass (kg)
RCS (m²)

Purposes: earth_obs

External: N2YO · Heavens-Above · Gunter

§ Orbital elements

Epoch: 2026-05-25T03:14:51.597024Z

Period
93.32 min
Inclination
97.3799°
Eccentricity
0.0002164
Mean motion
15.43087733 rev/d
Perigee alt
435.5 km
Apogee alt
438.5 km
Semi-major
6,815.1 km
B*
4.5657e-4
RAAN
230.0969°
Arg perigee
33.5544°
Mean anomaly
326.5841°
Rev number
9,882

§ Raw data

FLOCK 4BE-311 60488U 24149W   26145.13531941  .00020120  00000+0  45657-3 0  99952 60488  97.3799 230.0969 0002164  33.5544 326.5841 15.43087733 98825

JSON: /api/v1/satellites/60488 · /tle

For live sub-satellite position, see the globe view (requires WebGL).

§ Visibility from observer

Set your observer location to see the next 7 days of passes ≥ 10°. The values pass through the URL so the page stays shareable.

No JS? Fill the form by hand. The geolocation button needs JavaScript.